User: anonymous   Login
Location: Hale Hill Observatory
(39.3806°N, 86.8431°W)
Time: 13:55:24
(UTC-04:00)
Language:

Cosmos 990 Rocket - Orbit

View from above orbital plane
View from above orbital plane
View from above satellite
View from above satellite

Ground track
Ground track

The orbit data is extracted from the following two-line orbital elements,

1 10677U 78019B   15242.50578556  .00000035  00000-0  19621-4 0  9992
2 10677 074.0363 074.5789 0016004 308.1389 051.8323 14.39887106967976
Epoch (UTC): 30 August 2015 12:08:19
Eccentricity: 0.0016004
inclination: 74.0363°
perigee height: 747 km
apogee height: 770 km
right ascension of ascending node: 74.5789°
argument of perigee: 308.1389°
revolutions per day: 14.39887106
mean anomaly at epoch: 51.8323°
orbit number at epoch: 96797

The dashed part of the orbit path shows where the satellite is in the earth's shadow,  

DLR